Regional Weather Roundup
Issued by NWS

Home | Current Version | Previous Version | Graphics & Text | Print | Product List | Glossary On
Versions: 1 2 3 4 5 6 7 8 9 10 11 12 13 14 15 16 17 18 19 20 21 22 23 24 25 26 27 28 29 30 31 32 33 34 35 36 37 38 39 40 41 42 43 44 45 46 47 48 49 50
000
ASUS43 KMKX 152300
RWRWI

WISCONSIN REGIONAL WEATHER ROUNDUP
NATIONAL WEATHER SERVICE MILWAUKEE/SULLIVAN WI
500 PM CST SUN JAN 15 2017

NOTE: "FAIR" INDICATES FEW OR NO CLOUDS BELOW 12,000 FEET WITH NO
SIGNIFICANT WEATHER AND/OR OBSTRUCTIONS TO VISIBILITY.

WIZ001-002-006>008-014>016-023>028-160000-
NORTHWEST WISCONSIN

CITY           SKY/WX    TMP DP  RH WIND       PRES   REMARKS
SUPERIOR ARPT  CLEAR     29  11  47 SW6       30.15F WCI  23
ASHLAND        CLEAR     29  10  45 SW14      30.16F WCI  18
HAYWARD        CLEAR     23  10  57 S10       30.18F WCI  12
SIREN          CLEAR     28  14  57 S7        30.20F WCI  20
CUMBERLAND     CLOUDY    19   9  63 SE6       30.22S WCI  11
RICE LAKE      CLOUDY    19  10  66 SE6       30.25F WCI  11
CHETEK         CLOUDY    19   9  64 SE3       30.24F
LADYSMITH      CLOUDY    23   9  56 S6        30.26R WCI  15
EAU CLAIRE     CLOUDY    22  10  60 SE7       30.26F WCI  13
MENOMONIE      CLOUDY    19   9  65 CALM      30.26F
NEW RICHMOND   CLOUDY    24  15  67 SE6       30.23F WCI  17
OSCEOLA        CLOUDY    22  14  72 SE3       30.25F
$$

WIZ003>005-009-010-017-018-160000-
NORTH CENTRAL WISCONSIN

CITY           SKY/WX    TMP DP  RH WIND       PRES   REMARKS
MANITOWISH WTR CLEAR     26  11  52 S7        30.16F WCI  18
ARBOR VITAE    CLEAR     29  13  51 SW5       30.17F WCI  24
WOODRUFF       CLEAR     29  13  51 SW5       30.17F WCI  24
RHINELANDER    CLEAR     24  11  57 SW8       30.19F WCI  15
EAGLE RIVER    CLEAR     28  12  53 SW3       30.16F
LAND O LAKES   CLEAR     29  13  50 SW7       30.17S WCI  22
PHILLIPS       CLEAR     24  10  55 SW6       30.20F WCI  17
TOMAHAWK       CLEAR     24  10  56 CALM      30.21F
MEDFORD        CLOUDY    17   7  66 S5        30.23S WCI  10
MERRILL        CLOUDY    20  10  63 S3          N/A
$$

WIZ029-030-035-036-043>047-160000-
CENTRAL WISCONSIN

CITY           SKY/WX    TMP DP  RH WIND       PRES   REMARKS
WAUSAU         CLOUDY    22  10  60 W3        30.24F
MOSINEE        NOT AVBL
MARSHFIELD     CLOUDY    20  10  65 CALM      30.24F
STEVENS POINT  CLOUDY    18  11  71 CALM      30.27F
WAUPACA        CLOUDY    28  12  51 CALM      30.29S
WAUTOMA        CLOUDY    24  13  62 CALM      30.29F
WISC RAPIDS    CLOUDY    20  15  81 CALM      30.28F
CAMP DOUGLAS   NOT AVBL
$$

WIZ011>013-019>022-031-037>040-048>050-160000-
NORTHEAST WISCONSIN

CITY           SKY/WX    TMP DP  RH WIND       PRES   REMARKS
ANTIGO         CLOUDY    17   7  67 SW5       30.22S WCI   9
SHAWANO        CLOUDY    27  13  55 CALM      30.28F
OCONTO         CLEAR     24  10  53 SW7       30.29R WCI  16
STURGEON BAY   CLEAR     21  12  68 S8        30.28F WCI  11
GREEN BAY      CLOUDY    21  12  68 S7        30.30S WCI  12
MANITOWOC      NOT AVBL
APPLETON       PTCLDY    19   9  63 S5        30.27S WCI  13
CLINTONVILLE   CLOUDY    23  10  58 SW5       30.28F WCI  17
OSHKOSH        CLOUDY    19   9  65 S3        30.31R
$$

WIZ032>034-041-042-053>061-160000-
SOUTHWEST WISCONSIN

CITY           SKY/WX    TMP DP  RH WIND       PRES   REMARKS
LA CROSSE      CLOUDY   N/A N/A N/A CALM      30.29S
SPARTA         CLOUDY    26  17  70 CALM      30.29F
VIROQUA        CLOUDY    27  14  57 CALM      30.25F
BOSCOBEL       CLOUDY    28  18  66 CALM      30.30S HAZE
PRAIRIE DU CHI CLOUDY    30  16  57 CALM      30.29F
PLATTEVILLE    CLOUDY    29  23  78 S3        30.29S
$$

WIZ056-057-062-063-064-067-068-160000-
SOUTH CENTRAL WISCONSIN

CITY           SKY/WX    TMP DP  RH WIND       PRES   REMARKS
REEDSBURG      CLOUDY    29  13  50 CALM      30.28F
BARABOO/DELLS  CLOUDY    29  14  52 CALM      30.28S
LONE ROCK      NOT AVBL
MINERAL POINT  CLOUDY    30  21  69 CALM      30.27S
MADISON        CLOUDY    29  17  61 CALM      30.29S
MIDDLETON      CLOUDY    32  19  57 CALM      30.30R
WATERTOWN      CLOUDY    28  17  65 CALM      30.30F
MONROE         CLOUDY    28  19  69 S5        30.28S WCI  23
JANESVILLE     NOT AVBL
$$

WIZ051-052-058>065-066-070>072-160000-
SOUTHEAST WISCONSIN

CITY           SKY/WX    TMP DP  RH WIND       PRES   REMARKS
MILWAUKEE      PTCLDY    32  16  51 SW6       30.32S WCI  26
WAUKESHA       CLEAR     27  16  63 CALM      30.32S
MILWAUKEE/TIMM CLEAR     30  16  55 CALM      30.32S
RACINE         CLOUDY    28  19  69 SE3       30.34S
KENOSHA        CLOUDY    29  18  63 CALM      30.32S
FOND DU LAC    CLOUDY    21  10  62 S6        30.30F WCI  13
SHEBOYGAN      CLOUDY    21  12  68 SW3       30.31S
WEST BEND      CLOUDY    30  14  51 CALM      30.30S
JUNEAU         CLOUDY    24  15  69 CALM      30.31S
$$

LSZ147-162-160000-
LAKE SUPERIOR

STATION/POSITION TIME  TEMP    WIND        PRES    WAVE
                       AIR SEA DIR/SP/G            HT/PER
                 (UTC) (F)     (DEG/KT/KT) (MB)    (FT/S)
DEVILS ISLAND    2200   32     220/ 16/ 20 1020.9F
PORT WING        2240   31     190/ 10/ 13 1020.7F
SAXON HARBOR     2240   33     200/ 11/ 15 1020.7F
$$

LMZ867-665-643>646-160000-
LAKE MICHIGAN

STATION/POSITION TIME  TEMP    WIND        PRES    WAVE
                       AIR SEA DIR/SP/G            HT/PER
                 (UTC) (F)     (DEG/KT/KT) (MB)    (FT/S)
NORTHPORT PIER   2240   26     180/  1/  5 1024.4S
SISTER BAY       2150   31     240/  7/  8   N/A
KEWAUNEE LAKESHO 2230   24     250/  3/  3 1025.6F
SHEBOYGAN LAKESH 2200   29      60/  2/  2 1027.4F
PORT WASHINGTON  2240   32     140/  3/  4 1027.8S
MILWAUKEE LAKESH 2230   32     120/  6/  7   N/A
KENOSHA   LAKESH 2200   30     170/  8/ 10 1027.1
$$

TC  - TEMPERATURE IN CELSIUS
VSB - VISIBILITY IN STATUTE MILES
WCI - WIND CHILL INDEX
HX  - HEAT INDEX





USA.gov is the U.S. government's official web portal to all federal, state and local government web resources and services.